,,,PA_Meas_PMT16A,,PR_Meas_QMR101_102,,RH_Meas_QMH101,,SR_Meas_QMS101,,TA_Meas_QMH101,,GenWind,,GenWind,
date,time,status,PA,status,PR,status,RH,status,SR,status,TA,status,DirAvg,status,SpdAvg,
2010-12-07, 00:00:04,VALID,1008.33,VALID,0,VALID,99.783,VALID,0,VALID,23.7117,VALID,231,VALID,1.86445,
2010-12-07, 00:01:04,VALID,1008.34,VALID,0,VALID,99.6228,VALID,0,VALID,23.7507,VALID,252,VALID,1.62344,
2010-12-07, 00:02:04,VALID,1008.34,VALID,0,VALID,99.4551,VALID,0,VALID,23.7914,VALID,218,VALID,2.19961,
2010-12-07, 00:03:04,VALID,1008.31,VALID,0,VALID,99.2263,VALID,0,VALID,23.8109,VALID,215,VALID,1.65664,
2010-12-07, 00:04:04,VALID,1008.32,VALID,0,VALID,98.8069,VALID,0,VALID,23.8091,VALID,248,VALID,1.94062,
2010-12-07, 00:05:04,VALID,1008.3,VALID,0,VALID,98.7688,VALID,0,VALID,23.8499,VALID,228,VALID,2.1543,
2010-12-07, 00:06:04,VALID,1008.33,VALID,0,VALID,98.7535,VALID,0,VALID,23.8286,VALID,226,VALID,1.66797,
2010-12-07, 00:07:04,VALID,1008.28,VALID,0,VALID,98.7535,VALID,0,VALID,23.8694,VALID,216,VALID,1.17695,
2010-12-07, 00:08:04,VALID,1008.27,VALID,0,VALID,99.0814,VALID,0,VALID,23.8286,VALID,206,VALID,1.73945,
2010-12-07, 00:09:04,VALID,1008.26,VALID,0,VALID,98.967,VALID,0,VALID,23.8304,VALID,222,VALID,1.88398,
2010-12-07, 00:10:04,VALID,1008.25,VALID,0,VALID,98.8679,VALID,0.105969,VALID,23.8286,VALID,206,VALID,1.55234,
2010-12-07, 00:11:04,VALID,1008.26,VALID,0,VALID,99.0967,VALID,0.105969,VALID,23.8073,VALID,194,VALID,1.45273,
2010-12-07, 00:12:04,VALID,1008.26,VALID,0,VALID,98.9365,VALID,0,VALID,23.8304,VALID,204,VALID,2.2168,
2010-12-07, 00:13:04,VALID,1008.27,VALID,0,VALID,98.9594,VALID,0.105969,VALID,23.8286,VALID,214,VALID,1.58242,
2010-12-07, 00:14:04,VALID,1008.24,VALID,0,VALID,98.6315,VALID,0,VALID,23.8304,VALID,214,VALID,3.58555,
2010-12-07, 00:15:04,VALID,1008.24,VALID,0,VALID,98.1511,VALID,0,VALID,23.8499,VALID,220,VALID,3.225,
2010-12-07, 00:16:04,VALID,1008.24,VALID,0,VALID,98.4637,VALID,0.105969,VALID,23.8676,VALID,214,VALID,2.0125,
2010-12-07, 00:17:04,VALID,1008.19,VALID,0,VALID,98.5781,VALID,0.105969,VALID,23.8694,VALID,228,VALID,1.80078,
2010-12-07, 00:18:04,VALID,1008.22,VALID,0,VALID,98.7916,VALID,0.105969,VALID,23.8499,VALID,232,VALID,1.68594,
2010-12-07, 00:19:04,VALID,1008.22,VALID,0,VALID,98.6467,VALID,0,VALID,23.8304,VALID,226,VALID,1.84375,
2010-12-07, 00:20:04,VALID,1008.16,VALID,0,VALID,98.8526,VALID,0,VALID,23.8304,VALID,217,VALID,1.60078,
2010-12-07, 00:21:04,VALID,1008.17,VALID,0,VALID,98.9899,VALID,0,VALID,23.8091,VALID,208,VALID,1.73945,
2010-12-07, 00:22:04,VALID,1008.11,VALID,0,VALID,99.028,VALID,0,VALID,23.7896,VALID,205,VALID,1.76445,
2010-12-07, 00:23:04,VALID,1008.09,VALID,0,VALID,99.2111,VALID,0,VALID,23.7701,VALID,211,VALID,2.26172,
2010-12-07, 00:24:04,VALID,1008.07,VALID,0,VALID,99.2721,VALID,0.105969,VALID,23.7914,VALID,221,VALID,2.24844,
2010-12-07, 00:25:04,VALID,1008.05,VALID,0,VALID,99.5237,VALID,0,VALID,23.772,VALID,204,VALID,0.964453,
2010-12-07, 00:26:04,VALID,1008.07,VALID,0,VALID,99.6991,VALID,0,VALID,23.7525,VALID,214,VALID,1.46406,
2010-12-07, 00:27:04,VALID,1008.07,VALID,0,VALID,99.8821,VALID,0,VALID,23.7525,VALID,234,VALID,1.87031,
2010-12-07, 00:28:04,VALID,1008.02,VALID,0,VALID,99.6228,VALID,0.105969,VALID,23.6922,VALID,232,VALID,1.83242,
2010-12-07, 00:29:04,VALID,1008,VALID,0,VALID,99.6915,VALID,0,VALID,23.733,VALID,222,VALID,1.63711,
2010-12-07, 00:30:04,VALID,1007.95,VALID,0,VALID,99.6381,VALID,0,VALID,23.7117,VALID,215,VALID,1.93711,
2010-12-07, 00:31:04,VALID,1007.98,VALID,0,VALID,100.019,VALID,0,VALID,23.7117,VALID,208,VALID,1.23867,
2010-12-07, 00:32:04,VALID,1007.97,VALID,0,VALID,100.286,VALID,0,VALID,23.7135,VALID,213,VALID,0.608594,
2010-12-07, 00:33:04,VALID,1007.92,VALID,0,VALID,100.172,VALID,0,VALID,23.694,VALID,233,VALID,0.742969,
2010-12-07, 00:34:04,VALID,1007.91,VALID,0,VALID,100.233,VALID,0,VALID,23.6727,VALID,193,VALID,1.13437,
2010-12-07, 00:35:04,VALID,1007.93,VALID,0,VALID,100.058,VALID,0,VALID,23.6338,VALID,244,VALID,1.14648,
2010-12-07, 00:36:04,VALID,1007.87,VALID,0,VALID,100.019,VALID,0,VALID,23.6532,VALID,219,VALID,1.05586,
2010-12-07, 00:37:04,VALID,1007.88,VALID,0,VALID,99.722,VALID,0.105969,VALID,23.6727,VALID,236,VALID,1.78594,
2010-12-07, 00:38:04,VALID,1007.86,VALID,0,VALID,99.3712,VALID,0.105969,VALID,23.6922,VALID,225,VALID,1.51953,
2010-12-07, 00:39:04,VALID,1007.87,VALID,0,VALID,99.0509,VALID,0,VALID,23.7135,VALID,231,VALID,1.81953,
2010-12-07, 00:40:04,VALID,1007.86,VALID,0,VALID,99.1119,VALID,0,VALID,23.7348,VALID,223,VALID,0.982422,
2010-12-07, 00:41:04,VALID,1007.85,VALID,0,VALID,99.3407,VALID,0,VALID,23.7135,VALID,216,VALID,0.872266,
2010-12-07, 00:42:04,VALID,1007.82,VALID,0,VALID,99.2568,VALID,0,VALID,23.694,VALID,214,VALID,1.20625,
2010-12-07, 00:43:04,VALID,1007.8,VALID,0,VALID,99.4169,VALID,0,VALID,23.7135,VALID,177,VALID,0.687891,
2010-12-07, 00:44:04,VALID,1007.77,VALID,0,VALID,99.3483,VALID,0,VALID,23.694,VALID,263,VALID,0.315625,
2010-12-07, 00:45:04,VALID,1007.77,VALID,0,VALID,99.478,VALID,0,VALID,23.6745,VALID,226,VALID,0.8,
2010-12-07, 00:46:04,VALID,1007.72,VALID,0,VALID,99.1577,VALID,0,VALID,23.6958,VALID,215,VALID,2.29727,
2010-12-07, 00:47:04,VALID,1007.73,VALID,0,VALID,99.1653,VALID,0,VALID,23.7135,VALID,221,VALID,1.1043,
2010-12-07, 00:48:04,VALID,1007.75,VALID,0,VALID,99.2111,VALID,0,VALID,23.7135,VALID,214,VALID,1.38398,
2010-12-07, 00:49:04,VALID,1007.73,VALID,0,VALID,99.1882,VALID,0,VALID,23.7348,VALID,237,VALID,1.64961,
2010-12-07, 00:50:04,VALID,1007.75,VALID,0,VALID,98.8069,VALID,0,VALID,23.733,VALID,229,VALID,1.82813,
2010-12-07, 00:51:04,VALID,1007.73,VALID,0,VALID,98.54,VALID,0,VALID,23.7543,VALID,223,VALID,2.07617,
2010-12-07, 00:52:04,VALID,1007.74,VALID,0,VALID,98.1816,VALID,0,VALID,23.7932,VALID,231,VALID,1.40273,
2010-12-07, 00:53:04,VALID,1007.74,VALID,0,VALID,98.3722,VALID,0,VALID,23.8127,VALID,259,VALID,0.495313,
2010-12-07, 00:54:04,VALID,1007.73,VALID,0,VALID,98.2655,VALID,0,VALID,23.7896,VALID,221,VALID,1.1457,
2010-12-07, 00:55:04,VALID,1007.7,VALID,0,VALID,98.54,VALID,0.105969,VALID,23.8304,VALID,203,VALID,0.413672,
2010-12-07, 00:56:04,VALID,1007.73,VALID,0,VALID,98.4866,VALID,0,VALID,23.8109,VALID,219,VALID,1.48164,
2010-12-07, 00:57:04,VALID,1007.71,VALID,0,VALID,98.0901,VALID,0.105969,VALID,23.7701,VALID,239,VALID,0.798828,
2010-12-07, 00:58:04,VALID,1007.68,VALID,0,VALID,98.1434,VALID,0,VALID,23.8109,VALID,288,VALID,1.17813,
2010-12-07, 00:59:04,VALID,1007.66,VALID,0,VALID,98.1053,VALID,0.105969,VALID,23.7896,VALID,218,VALID,1.28477,
2010-12-07, 01:00:04,VALID,1007.64,VALID,0,VALID,98.1816,VALID,0.105969,VALID,23.8109,VALID,221,VALID,1.41758,
2010-12-07, 01:01:04,VALID,1007.65,VALID,0,VALID,98.4103,VALID,0.105969,VALID,23.7701,VALID,204,VALID,1.06836,
2010-12-07, 01:02:04,VALID,1007.62,VALID,0,VALID,98.1434,VALID,0,VALID,23.772,VALID,216,VALID,1.45977,
2010-12-07, 01:03:04,VALID,1007.63,VALID,0,VALID,97.846,VALID,0,VALID,23.7914,VALID,211,VALID,0.946875,
2010-12-07, 01:04:04,VALID,1007.63,VALID,0,VALID,98.0748,VALID,0,VALID,23.7914,VALID,225,VALID,0.865234,
2010-12-07, 01:05:04,VALID,1007.63,VALID,0,VALID,97.9909,VALID,0,VALID,23.7701,VALID,212,VALID,0.759766,
2010-12-07, 01:06:04,VALID,1007.63,VALID,0,VALID,98.2197,VALID,0,VALID,23.772,VALID,204,VALID,0.546094,
2010-12-07, 01:07:04,VALID,1007.63,VALID,0,VALID,98.3798,VALID,0,VALID,23.772,VALID,209,VALID,1.16016,
2010-12-07, 01:08:04,VALID,1007.58,VALID,0,VALID,97.9681,VALID,0,VALID,23.772,VALID,214,VALID,1.59102,
2010-12-07, 01:09:04,VALID,1007.56,VALID,0,VALID,98.1358,VALID,0.105969,VALID,23.7701,VALID,228,VALID,0.945703,
2010-12-07, 01:10:04,VALID,1007.54,VALID,0,VALID,98.0977,VALID,0,VALID,23.7914,VALID,218,VALID,1.77461,
2010-12-07, 01:11:04,VALID,1007.53,VALID,0,VALID,98.3265,VALID,0.105969,VALID,23.7914,VALID,231,VALID,0.688672,
2010-12-07, 01:12:04,VALID,1007.53,VALID,0,VALID,98.2426,VALID,0,VALID,23.7507,VALID,212,VALID,0.964063,
2010-12-07, 01:13:04,VALID,1007.5,VALID,0,VALID,98.418,VALID,0.105969,VALID,23.7312,VALID,230,VALID,1.22187,
2010-12-07, 01:14:04,VALID,1007.44,VALID,0,VALID,98.3112,VALID,0.105969,VALID,23.7507,VALID,229,VALID,1.24766,
2010-12-07, 01:15:04,VALID,1007.46,VALID,0,VALID,98.4103,VALID,0.105969,VALID,23.7507,VALID,223,VALID,0.406641,
2010-12-07, 01:16:04,VALID,1007.45,VALID,0,VALID,98.3341,VALID,0.105969,VALID,23.7507,VALID,227,VALID,0.722266,
2010-12-07, 01:17:04,VALID,1007.38,VALID,0,VALID,98.3112,VALID,0.105969,VALID,23.7312,VALID,251,VALID,0.497266,
2010-12-07, 01:18:04,VALID,1007.4,VALID,0,VALID,98.2731,VALID,0,VALID,23.7525,VALID,213,VALID,1.53984,
2010-12-07, 01:19:04,VALID,1007.36,VALID,0,VALID,98.3417,VALID,0,VALID,23.7312,VALID,224,VALID,1.4457,
2010-12-07, 01:20:04,VALID,1007.36,VALID,0,VALID,98.4714,VALID,0,VALID,23.733,VALID,217,VALID,1.19062,
2010-12-07, 01:21:04,VALID,1007.37,VALID,0,VALID,98.662,VALID,0.105969,VALID,23.7525,VALID,202,VALID,0.582031,
2010-12-07, 01:22:04,VALID,1007.38,VALID,0,VALID,98.8069,VALID,0.105969,VALID,23.7117,VALID,234,VALID,0.657422,
2010-12-07, 01:23:04,VALID,1007.34,VALID,0,VALID,98.845,VALID,0,VALID,23.733,VALID,219,VALID,1.23594,
2010-12-07, 01:24:04,VALID,1007.36,VALID,0,VALID,98.6162,VALID,0,VALID,23.7153,VALID,238,VALID,0.564844,
2010-12-07, 01:25:04,VALID,1007.32,VALID,0,VALID,98.8069,VALID,0,VALID,23.7348,VALID,226,VALID,0.796094,
2010-12-07, 01:26:04,VALID,1007.33,VALID,0,VALID,98.9747,VALID,0,VALID,23.7153,VALID,226,VALID,0.05625,
2010-12-07, 01:27:04,VALID,1007.33,VALID,0,VALID,99.1805,VALID,0,VALID,23.694,VALID,200,VALID,0.999609,
2010-12-07, 01:28:04,VALID,1007.32,VALID,0,VALID,99.4169,VALID,0,VALID,23.6745,VALID,219,VALID,0.415234,
2010-12-07, 01:29:04,VALID,1007.3,VALID,0,VALID,99.2492,VALID,0,VALID,23.655,VALID,226,VALID,0.986719,
2010-12-07, 01:30:04,VALID,1007.3,VALID,0,VALID,99.3254,VALID,0,VALID,23.655,VALID,221,VALID,0.588281,
2010-12-07, 01:31:04,VALID,1007.27,VALID,0,VALID,99.3407,VALID,0,VALID,23.6763,VALID,211,VALID,0.620313,
2010-12-07, 01:32:04,VALID,1007.29,VALID,0,VALID,99.2263,VALID,0,VALID,23.6568,VALID,234,VALID,0.769922,
2010-12-07, 01:33:04,VALID,1007.27,VALID,0,VALID,99.5466,VALID,0,VALID,23.6745,VALID,209,VALID,0.436719,
2010-12-07, 01:34:04,VALID,1007.27,VALID,0,VALID,99.5085,VALID,0,VALID,23.6356,VALID,223,VALID,0.882813,
2010-12-07, 01:35:04,VALID,1007.27,VALID,0,VALID,99.5542,VALID,0,VALID,23.6356,VALID,212,VALID,0.896484,
2010-12-07, 01:36:04,VALID,1007.28,VALID,0,VALID,99.4093,VALID,0,VALID,23.6356,VALID,219,VALID,0.515625,
2010-12-07, 01:37:04,VALID,1007.26,VALID,0,VALID,99.3636,VALID,0,VALID,23.6356,VALID,226,VALID,1.03477,
2010-12-07, 01:38:04,VALID,1007.26,VALID,0,VALID,99.3254,VALID,0,VALID,23.6568,VALID,226,VALID,0.746875,
2010-12-07, 01:39:04,VALID,1007.22,VALID,0,VALID,99.2492,VALID,0,VALID,23.6356,VALID,230,VALID,1.2043,
2010-12-07, 01:40:04,VALID,1007.24,VALID,0,VALID,99.4017,VALID,0,VALID,23.655,VALID,191,VALID,0.654297,
2010-12-07, 01:41:04,VALID,1007.22,VALID,0,VALID,99.5771,VALID,0,VALID,23.6161,VALID,248,VALID,0.872656,
2010-12-07, 01:42:04,VALID,1007.19,VALID,0,VALID,99.6915,VALID,0,VALID,23.5966,VALID,199,VALID,0.617578,
2010-12-07, 01:43:04,VALID,1007.18,VALID,0,VALID,100.012,VALID,0,VALID,23.5966,VALID,214,VALID,0.738672,
2010-12-07, 01:44:04,VALID,1007.17,VALID,0,VALID,99.9126,VALID,0,VALID,23.5771,VALID,204,VALID,0.503125,
2010-12-07, 01:45:04,VALID,1007.2,VALID,0,VALID,100.065,VALID,0,VALID,23.5771,VALID,211,VALID,0.580469,
2010-12-07, 01:46:04,VALID,1007.2,VALID,0,VALID,99.7754,VALID,0,VALID,23.5576,VALID,238,VALID,1.15703,
2010-12-07, 01:47:04,VALID,1007.2,VALID,0,VALID,99.661,VALID,0,VALID,23.5771,VALID,226,VALID,0.504687,
2010-12-07, 01:48:04,VALID,1007.19,VALID,0,VALID,99.722,VALID,0,VALID,23.5966,VALID,226,VALID,0.200781,
2010-12-07, 01:49:04,VALID,1007.19,VALID,0,VALID,99.8592,VALID,0,VALID,23.5966,VALID,282,VALID,0.251953,
2010-12-07, 01:50:04,VALID,1007.17,VALID,0,VALID,99.8135,VALID,0,VALID,23.5771,VALID,275,VALID,0.192188,
2010-12-07, 01:51:04,VALID,1007.17,VALID,0,VALID,99.9355,VALID,0,VALID,23.5771,VALID,275,VALID,0.4375,
2010-12-07, 01:52:04,VALID,1007.18,VALID,0,VALID,99.7144,VALID,0,VALID,23.5576,VALID,292,VALID,0.826953,
2010-12-07, 01:53:04,VALID,1007.16,VALID,0,VALID,99.4246,VALID,0,VALID,23.5984,VALID,301,VALID,0.582031,
2010-12-07, 01:54:04,VALID,1007.17,VALID,0,VALID,99.3331,VALID,0.105969,VALID,23.5948,VALID,301,VALID,0,
2010-12-07, 01:55:04,VALID,1007.15,VALID,0,VALID,99.3941,VALID,0,VALID,23.5753,VALID,243,VALID,0.717578,
2010-12-07, 01:56:04,VALID,1007.15,VALID,0,VALID,99.1348,VALID,0.105969,VALID,23.6143,VALID,251,VALID,0.34375,
2010-12-07, 01:57:04,VALID,1007.14,VALID,0,VALID,98.9975,VALID,0,VALID,23.6143,VALID,251,VALID,0.275781,
2010-12-07, 01:58:04,VALID,1007.13,VALID,0,VALID,99.2416,VALID,0.105969,VALID,23.6125,VALID,251,VALID,0.0464844,
2010-12-07, 01:59:04,VALID,1007.13,VALID,0,VALID,99.3788,VALID,0.105969,VALID,23.6338,VALID,251,VALID,0.256641,
2010-12-07, 02:00:04,VALID,1007.1,VALID,0,VALID,99.2339,VALID,0,VALID,23.6143,VALID,218,VALID,0.435156,
2010-12-07, 02:01:04,VALID,1007.09,VALID,0,VALID,99.4246,VALID,0,VALID,23.6143,VALID,226,VALID,0.166406,
2010-12-07, 02:02:04,VALID,1007.09,VALID,0,VALID,99.5161,VALID,0,VALID,23.6143,VALID,276,VALID,0.334375,
2010-12-07, 02:03:04,VALID,1007.08,VALID,0,VALID,99.4169,VALID,0,VALID,23.5948,VALID,249,VALID,0.546875,
2010-12-07, 02:04:04,VALID,1007.07,VALID,0,VALID,99.4322,VALID,0,VALID,23.6143,VALID,224,VALID,0.28125,
2010-12-07, 02:05:04,VALID,1007.08,VALID,0,VALID,99.5237,VALID,0.105969,VALID,23.6338,VALID,224,VALID,0.304297,
2010-12-07, 02:06:04,VALID,1007.06,VALID,0,VALID,99.6381,VALID,0,VALID,23.6356,VALID,224,VALID,0.478516,
2010-12-07, 02:07:04,VALID,1007.06,VALID,0,VALID,99.8287,VALID,0.105969,VALID,23.6356,VALID,216,VALID,0.592188,
2010-12-07, 02:08:04,VALID,1007.06,VALID,0,VALID,100.012,VALID,0.105969,VALID,23.6161,VALID,228,VALID,0.450391,
2010-12-07, 02:09:04,VALID,1007.05,VALID,0,VALID,100.141,VALID,0,VALID,23.5966,VALID,228,VALID,0.423438,
2010-12-07, 02:10:04,VALID,1007.03,VALID,0,VALID,100.05,VALID,0,VALID,23.5576,VALID,191,VALID,0.428125,
2010-12-07, 02:11:04,VALID,1007.04,VALID,0,VALID,100.309,VALID,0,VALID,23.5771,VALID,191,VALID,0.0859375,
2010-12-07, 02:12:04,VALID,1007.01,VALID,0,VALID,100.096,VALID,0,VALID,23.5789,VALID,211,VALID,0.778125,
2010-12-07, 02:13:04,VALID,1006.99,VALID,0,VALID,100.111,VALID,0,VALID,23.5789,VALID,209,VALID,0.866797,
2010-12-07, 02:14:04,VALID,1006.97,VALID,0,VALID,100.103,VALID,0.105969,VALID,23.5558,VALID,193,VALID,0.69375,
2010-12-07, 02:15:04,VALID,1006.98,VALID,0,VALID,100.355,VALID,0.105969,VALID,23.5753,VALID,194,VALID,0.451562,
2010-12-07, 02:16:04,VALID,1006.99,VALID,0,VALID,100.18,VALID,0.105969,VALID,23.5558,VALID,194,VALID,0.713281,
2010-12-07, 02:17:04,VALID,1006.98,VALID,0,VALID,100.34,VALID,0.105969,VALID,23.5753,VALID,194,VALID,0.0390625,
2010-12-07, 02:18:04,VALID,1006.95,VALID,0,VALID,100.568,VALID,0.105969,VALID,23.5948,VALID,194,VALID,0.00546875,
2010-12-07, 02:19:04,VALID,1006.98,VALID,0,VALID,100.546,VALID,0.105969,VALID,23.5753,VALID,256,VALID,0.196875,
2010-12-07, 02:20:04,VALID,1006.97,VALID,0,VALID,100.332,VALID,0.105969,VALID,23.5948,VALID,228,VALID,0.176563,
2010-12-07, 02:21:04,VALID,1006.97,VALID,0,VALID,100.065,VALID,0.105969,VALID,23.5948,VALID,220,VALID,0.425391,
2010-12-07, 02:22:04,VALID,1006.96,VALID,0,VALID,100.035,VALID,0,VALID,23.6143,VALID,207,VALID,0.621484,
2010-12-07, 02:23:04,VALID,1006.94,VALID,0,VALID,99.7525,VALID,0.105969,VALID,23.6338,VALID,223,VALID,1.11094,
2010-12-07, 02:24:04,VALID,1006.93,VALID,0,VALID,99.6762,VALID,0,VALID,23.655,VALID,234,VALID,0.603516,
2010-12-07, 02:25:04,VALID,1006.96,VALID,0,VALID,99.6228,VALID,0,VALID,23.6745,VALID,245,VALID,0.914844,
2010-12-07, 02:26:04,VALID,1006.95,VALID,0,VALID,99.5466,VALID,0,VALID,23.694,VALID,254,VALID,0,
2010-12-07, 02:27:04,VALID,1006.92,VALID,0,VALID,99.783,VALID,0,VALID,23.7348,VALID,254,VALID,0,
2010-12-07, 02:28:04,VALID,1006.97,VALID,0,VALID,99.6457,VALID,0,VALID,23.694,VALID,254,VALID,0.00585938,
2010-12-07, 02:29:04,VALID,1006.95,VALID,0,VALID,99.7296,VALID,0,VALID,23.6745,VALID,254,VALID,0,
2010-12-07, 02:30:04,VALID,1006.94,VALID,0,VALID,99.9508,VALID,0,VALID,23.7153,VALID,254,VALID,0,
2010-12-07, 02:31:04,VALID,1006.91,VALID,0,VALID,100.119,VALID,0,VALID,23.6958,VALID,254,VALID,0,
2010-12-07, 02:32:04,VALID,1006.92,VALID,0,VALID,100.134,VALID,0,VALID,23.6745,VALID,254,VALID,0,
2010-12-07, 02:33:04,VALID,1006.91,VALID,0,VALID,100.317,VALID,0,VALID,23.6763,VALID,254,VALID,0,
2010-12-07, 02:34:04,VALID,1006.94,VALID,0,VALID,100.317,VALID,0,VALID,23.655,VALID,254,VALID,0,
2010-12-07, 02:35:04,VALID,1006.91,VALID,0,VALID,100.401,VALID,0,VALID,23.655,VALID,254,VALID,0,
2010-12-07, 02:36:04,VALID,1006.93,VALID,0,VALID,100.599,VALID,0,VALID,23.655,VALID,254,VALID,0,
2010-12-07, 02:37:04,VALID,1006.93,VALID,0,VALID,100.706,VALID,0,VALID,23.655,VALID,254,VALID,0,
2010-12-07, 02:38:04,VALID,1006.92,VALID,0,VALID,100.82,VALID,0,VALID,23.6356,VALID,254,VALID,0,
2010-12-07, 02:39:04,VALID,1006.91,VALID,0,VALID,101.056,VALID,0,VALID,23.6356,VALID,254,VALID,0,
2010-12-07, 02:40:04,VALID,1006.89,VALID,0,VALID,101.285,VALID,0,VALID,23.655,VALID,254,VALID,0,
2010-12-07, 02:41:04,VALID,1006.91,VALID,0,VALID,101.407,VALID,0,VALID,23.6568,VALID,254,VALID,0,
2010-12-07, 02:42:04,VALID,1006.92,VALID,0,VALID,101.667,VALID,0,VALID,23.6763,VALID,254,VALID,0,
2010-12-07, 02:43:04,VALID,1006.93,VALID,0,VALID,101.689,VALID,0,VALID,23.6356,VALID,254,VALID,0,
2010-12-07, 02:44:04,VALID,1006.94,VALID,0,VALID,101.415,VALID,0,VALID,23.6179,VALID,254,VALID,0,
2010-12-07, 02:45:04,VALID,1006.97,VALID,0,VALID,101.491,VALID,0,VALID,23.5966,VALID,254,VALID,0,
2010-12-07, 02:46:04,VALID,1006.94,VALID,0,VALID,101.834,VALID,0,VALID,23.5966,VALID,254,VALID,0.100781,
2010-12-07, 02:47:04,VALID,1006.96,VALID,0,VALID,102.162,VALID,0,VALID,23.5966,VALID,254,VALID,0.400781,
2010-12-07, 02:48:04,VALID,1006.96,VALID,0,VALID,102.383,VALID,0,VALID,23.5789,VALID,254,VALID,0.291016,
2010-12-07, 02:49:04,VALID,1006.99,VALID,0,VALID,102.574,VALID,0,VALID,23.5381,VALID,254,VALID,0.289453,
2010-12-07, 02:50:04,VALID,1006.97,VALID,0,VALID,102.597,VALID,0,VALID,23.4797,VALID,254,VALID,0.303906,
2010-12-07, 02:51:04,VALID,1006.94,VALID,0,VALID,102.605,VALID,0,VALID,23.4407,VALID,254,VALID,0.258203,
2010-12-07, 02:52:04,VALID,1006.93,VALID,0,VALID,102.734,VALID,0,VALID,23.4425,VALID,254,VALID,0.283984,
2010-12-07, 02:53:04,VALID,1006.94,VALID,0,VALID,102.818,VALID,0,VALID,23.3823,VALID,254,VALID,0.182422,
2010-12-07, 02:54:04,VALID,1006.94,VALID,0,VALID,102.902,VALID,0,VALID,23.3628,VALID,254,VALID,0.292188,
2010-12-07, 02:55:04,VALID,1006.93,VALID,0,VALID,102.978,VALID,0.105969,VALID,23.3433,VALID,254,VALID,0.353906,
2010-12-07, 02:56:04,VALID,1006.91,VALID,0,VALID,103.085,VALID,0,VALID,23.3026,VALID,254,VALID,0.534375,
2010-12-07, 02:57:04,VALID,1006.88,VALID,0,VALID,103.161,VALID,0.105969,VALID,23.3043,VALID,254,VALID,0.449219,
2010-12-07, 02:58:04,VALID,1006.88,VALID,0,VALID,103.199,VALID,0.105969,VALID,23.2848,VALID,254,VALID,0.265234,
2010-12-07, 02:59:04,VALID,1006.89,VALID,0,VALID,103.245,VALID,0.105969,VALID,23.2441,VALID,254,VALID,0.203906,
2010-12-07, 03:00:04,VALID,1006.86,VALID,0,VALID,103.306,VALID,0,VALID,23.2441,VALID,254,VALID,0.175,
2010-12-07, 03:01:04,VALID,1006.84,VALID,0,VALID,103.375,VALID,0,VALID,23.2246,VALID,254,VALID,0.00585938,
2010-12-07, 03:02:04,VALID,1006.85,VALID,0,VALID,103.443,VALID,0.105969,VALID,23.2246,VALID,254,VALID,0,
2010-12-07, 03:03:04,VALID,1006.86,VALID,0,VALID,103.497,VALID,0.105969,VALID,23.2459,VALID,254,VALID,0.205859,
2010-12-07, 03:04:04,VALID,1006.84,VALID,0,VALID,103.55,VALID,0.105969,VALID,23.2246,VALID,254,VALID,0.176563,
2010-12-07, 03:05:04,VALID,1006.86,VALID,0,VALID,103.581,VALID,0,VALID,23.2051,VALID,254,VALID,0.189844,
2010-12-07, 03:06:04,VALID,1006.81,VALID,0,VALID,103.603,VALID,0.105969,VALID,23.2246,VALID,254,VALID,0,
2010-12-07, 03:07:04,VALID,1006.82,VALID,0,VALID,103.642,VALID,0.105969,VALID,23.2246,VALID,254,VALID,0,
2010-12-07, 03:08:04,VALID,1006.85,VALID,0,VALID,103.664,VALID,0.105969,VALID,23.2246,VALID,254,VALID,0,
2010-12-07, 03:09:04,VALID,1006.84,VALID,0,VALID,103.68,VALID,0,VALID,23.2069,VALID,254,VALID,0,
2010-12-07, 03:10:04,VALID,1006.82,VALID,0,VALID,103.664,VALID,0,VALID,23.2282,VALID,254,VALID,0,
2010-12-07, 03:11:04,VALID,1006.84,VALID,0,VALID,103.687,VALID,0,VALID,23.2264,VALID,254,VALID,0,
2010-12-07, 03:12:04,VALID,1006.82,VALID,0,VALID,103.664,VALID,0,VALID,23.2069,VALID,254,VALID,0.115625,
2010-12-07, 03:13:04,VALID,1006.82,VALID,0,VALID,103.642,VALID,0,VALID,23.2282,VALID,254,VALID,0,
2010-12-07, 03:14:04,VALID,1006.81,VALID,0,VALID,103.672,VALID,0,VALID,23.1874,VALID,254,VALID,0,
2010-12-07, 03:15:04,VALID,1006.83,VALID,0,VALID,103.642,VALID,0,VALID,23.2069,VALID,254,VALID,0,
2010-12-07, 03:16:04,VALID,1006.81,VALID,0,VALID,103.657,VALID,0,VALID,23.1874,VALID,254,VALID,0,
2010-12-07, 03:17:04,VALID,1006.79,VALID,0,VALID,103.642,VALID,0,VALID,23.1874,VALID,254,VALID,0,
2010-12-07, 03:18:04,VALID,1006.78,VALID,0,VALID,103.672,VALID,0,VALID,23.1874,VALID,254,VALID,0,
2010-12-07, 03:19:04,VALID,1006.73,VALID,0,VALID,103.695,VALID,0,VALID,23.2282,VALID,254,VALID,0,
2010-12-07, 03:20:04,VALID,1006.74,VALID,0,VALID,103.703,VALID,0,VALID,23.1874,VALID,254,VALID,0,
2010-12-07, 03:21:04,VALID,1006.74,VALID,0,VALID,103.733,VALID,0,VALID,23.2087,VALID,254,VALID,0,
2010-12-07, 03:22:04,VALID,1006.72,VALID,0,VALID,103.726,VALID,0,VALID,23.1892,VALID,254,VALID,0,
2010-12-07, 03:23:04,VALID,1006.72,VALID,0,VALID,103.733,VALID,0,VALID,23.1892,VALID,254,VALID,0,
2010-12-07, 03:24:04,VALID,1006.69,VALID,0,VALID,103.764,VALID,0,VALID,23.1892,VALID,254,VALID,0,
2010-12-07, 03:25:04,VALID,1006.7,VALID,0,VALID,103.787,VALID,0,VALID,23.1874,VALID,254,VALID,0,
2010-12-07, 03:26:04,VALID,1006.69,VALID,0,VALID,103.787,VALID,0,VALID,23.1892,VALID,254,VALID,0,
2010-12-07, 03:27:04,VALID,1006.65,VALID,0,VALID,103.787,VALID,0,VALID,23.1679,VALID,254,VALID,0,
2010-12-07, 03:28:04,VALID,1006.67,VALID,0,VALID,103.779,VALID,0,VALID,23.2087,VALID,254,VALID,0,
2010-12-07, 03:29:04,VALID,1006.64,VALID,0,VALID,103.794,VALID,0,VALID,23.2069,VALID,254,VALID,0,
2010-12-07, 03:30:04,VALID,1006.63,VALID,0,VALID,103.817,VALID,0,VALID,23.1874,VALID,254,VALID,0,
2010-12-07, 03:31:05,VALID,1006.62,VALID,0,VALID,103.84,VALID,0,VALID,23.1874,VALID,254,VALID,0,
2010-12-07, 03:32:05,VALID,1006.6,VALID,0,VALID,103.855,VALID,0,VALID,23.1874,VALID,254,VALID,0,
2010-12-07, 03:33:05,VALID,1006.62,VALID,0,VALID,103.84,VALID,0,VALID,23.1679,VALID,254,VALID,0,
2010-12-07, 03:34:05,VALID,1006.6,VALID,0,VALID,103.832,VALID,0,VALID,23.1679,VALID,254,VALID,0,
2010-12-07, 03:35:05,VALID,1006.59,VALID,0,VALID,103.855,VALID,0,VALID,23.1679,VALID,254,VALID,0,
2010-12-07, 03:36:05,VALID,1006.59,VALID,0,VALID,103.84,VALID,0,VALID,23.1485,VALID,254,VALID,0,
2010-12-07, 03:37:05,VALID,1006.59,VALID,0,VALID,103.832,VALID,0,VALID,23.129,VALID,254,VALID,0,
2010-12-07, 03:38:05,VALID,1006.61,VALID,0,VALID,103.802,VALID,0,VALID,23.129,VALID,254,VALID,0,
2010-12-07, 03:39:05,VALID,1006.62,VALID,0,VALID,103.825,VALID,0,VALID,23.129,VALID,254,VALID,0,
2010-12-07, 03:40:05,VALID,1006.63,VALID,0,VALID,103.848,VALID,0,VALID,23.1502,VALID,254,VALID,0,
2010-12-07, 03:41:05,VALID,1006.64,VALID,0,VALID,103.809,VALID,0,VALID,23.1095,VALID,254,VALID,0,
2010-12-07, 03:42:05,VALID,1006.64,VALID,0,VALID,103.825,VALID,0,VALID,23.1095,VALID,254,VALID,0,
2010-12-07, 03:43:05,VALID,1006.64,VALID,0,VALID,103.848,VALID,0,VALID,23.1095,VALID,254,VALID,0,
2010-12-07, 03:44:05,VALID,1006.63,VALID,0,VALID,103.84,VALID,0,VALID,23.09,VALID,254,VALID,0,
2010-12-07, 03:45:05,VALID,1006.65,VALID,0,VALID,103.848,VALID,0,VALID,23.1095,VALID,254,VALID,0,